Wind_Speed
24 22 20 18 17 17 16 14 13 11 11 13 12 11 12 14 16 15 15 16 15 15
26 25 23 21 20 19 18 16 15 16 15 13 13 15 16 16 15 15 14 15 15 16
26 23 24 23 23 23 20 18 18 18 16 17 14 13 8 13 15 15 13 12 15 17
23 21 19 21 23 23 20 24 23 23 21 19 14 16 11 8 10 13 13 12 14 19
17 17 18 19 20 20 22 21 23 22 16 16 18 18 21 15 13 14 14 13 15 18
5 6 5 6 7 8 10 9 11 14 17 19 15 13 13 12 16 17 12 14 19 20
6 7 7 6 7 8 8 8 8 7 7 7 8 9 10 10 11 9 14 18 19 21
11 9 9 10 10 10 12 13 13 13 10 8 8 7 9 10 14 12 14 16 17 19
11 11 14 15 15 16 15 15 15 16 15 14 13 12 9 8 8 8 10 11 13 14
15 17 16 16 17 19 20 17 20 20 19 20 20 20 17 12 10 12 14 15 16 16
16 17 18 19 20 21 21 23 22 23 22 23 24 22 21 19 18 21 24 24 23 21
17 17 17 18 17 17 19 21 22 23 23 25 24 22 22 22 23 24 26 28 28 25
17 19 19 18 17 15 17 20 22 24 24 23 24 23 22 21 22 24 24 23 22 21
19 20 20 19 17 17 18 20 21 22 22 22 22 22 22 22 24 22 22 22 22 21
Wind_Direction
237 243 251 252 259 268 269 274 275 284 282 279 278 264 262 267 270 268 276 284 269 271
240 243 252 258 261 268 271 277 276 278 277 271 268 263 251 244 248 253 271 279 272 274
246 252 256 262 267 268 272 274 274 272 267 266 264 267 273 272 242 238 258 273 272 268
256 260 266 269 271 275 275 275 270 267 268 257 283 276 276 304 269 260 274 280 274 270
265 270 276 281 275 274 274 275 276 271 257 262 286 278 289 292 268 288 275 288 288 279
256 262 288 306 312 313 303 308 300 282 278 290 300 300 306 298 292 288 276 291 289 277
82 76 66 55 39 32 26 12 7 357 351 16 29 14 357 335 316 283 290 295 296 281
91 83 68 58 48 39 39 43 43 42 32 358 357 334 293 306 310 308 312 310 305 290
90 75 61 55 49 47 39 33 31 34 34 24 11 354 349 326 331 323 321 328 322 318
85 74 69 66 64 60 58 59 58 56 53 47 41 34 30 24 24 28 25 11 358 347
88 82 80 72 67 71 72 71 62 59 56 54 47 44 50 56 60 60 53 48 40 39
105 100 92 85 82 82 81 71 65 63 61 60 54 52 56 56 60 56 55 55 51 52
100 101 99 99 100 93 84 81 76 72 69 66 61 57 57 57 60 61 60 56 53 50
106 101 97 97 97 95 89 87 83 78 72 67 62 60 57 54 59 62 62 58 55 55
Height
816 818 818 819 820 820 819 819 819 819 818 818 817 815 815 816 817 819 819 819 819 819
812 814 815 817 817 817 817 817 817 816 815 814 813 810 808 806 808 811 813 815 816 816
808 811 813 814 814 813 814 814 813 812 811 810 809 809 806 804 802 803 808 807 810 813
806 809 810 810 809 809 810 807 807 805 806 806 806 805 804 800 802 803 803 805 804 807
804 806 807 806 806 805 803 802 802 802 802 803 802 803 801 800 800 801 801 802 803 803
802 804 805 801 801 802 801 801 800 801 800 799 799 798 798 798 799 800 801 802 802 802
801 802 804 803 802 802 801 800 799 800 799 799 798 798 798 799 799 800 801 801 800 800
804 805 805 804 804 803 802 802 802 801 800 801 801 800 800 800 799 797 797 796 795 795
807 807 807 807 806 805 804 804 803 802 803 802 802 800 799 798 796 795 794 793 792 791
811 811 812 811 811 810 809 808 807 806 805 804 803 800 798 797 795 795 794 793 789 787
815 816 817 817 817 816 815 814 813 812 811 809 807 805 802 800 798 797 797 795 793 789
818 819 820 821 822 822 820 819 817 816 815 814 813 811 809 806 804 802 801 799 797 793
821 821 822 824 825 825 824 824 823 822 820 820 818 816 814 811 808 806 805 804 802 801
825 825 826 826 826 826 826 826 825 824 824 823 822 821 818 816 814 812 811 810 809 807